Flag for Germany Weather past 2 weeks in Kassel, Hesse, Germany

39 °F

Partly sunny.

Feels Like: 32 °F
Forecast: 32 / 40 °F
Wind: 10 mph from Northwest

Location: Kassel / Calden

Current Time: Nov 26, 2015 at 9:52:52 AM

Latest Report: Nov 26, 2015 at 9:20 AM

Visibility: 6 mi

Pressure: 29.92 "Hg

Humidity: 93%

Dew point: 37 °F

Location of KasselLocation

Historic Weather in Kassel — Graph


Kassel temperature yesterday

Maximum temperature yesterday: 39 °F (at 2:20 PM)
Minimum temperature yesterday: 34 °F (at 8:50 AM)
Average temperature yesterday: 36 °F

Past Weeks' High & Low Weather Summary

High57 °F (Nov 11, 9:50 AM)100% (Nov 13, 3:20 PM)30.30 "Hg (Nov 13, 3:20 PM)
Low32 °F (Nov 22, 3:20 PM)58% (Nov 19, 9:50 AM)29.39 "Hg (Nov 21, 7:50 AM)
Average46 °F83%29.91 "Hg
* Reported Nov 11 8:20 AM — Nov 26 8:20 AM, Kassel, Weather by CustomWeather, © 2015

Note: Actual official high and low records may vary slightly from our data, if they occured in-between our weather recording intervals... More about our weather records


Kassel weather history for previous 24 hours

Time TempWeatherWind HumidityBarometerVisibility
8:20 AM
Thu, Nov 26
37 °FLight rain. Low clouds.8 mph100%29.89 "Hg4 mi
7:50 AM37 °FLight rain. Mostly cloudy.9 mph100%29.89 "Hg3 mi
7:20 AM37 °FLight rain. Mostly cloudy.7 mph100%29.86 "Hg2 mi
6:50 AM37 °FMostly cloudy.8 mph100%29.86 "Hg4 mi
6:20 AM37 °FOvercast.9 mph100%29.83 "HgN/A
5:50 AM37 °FOvercast.8 mph100%29.83 "HgN/A
7:50 PM
Wed, Nov 25
37 °FOvercast.2 mph100%29.68 "HgN/A
7:20 PM37 °FOvercast.2 mph100%29.68 "HgN/A
6:50 PM36 °FPassing clouds.2 mph100%29.68 "Hg5 mi
6:20 PM37 °FDrizzle. Mostly cloudy.7 mph93%29.65 "Hg5 mi
5:50 PM36 °FPartly cloudy.3 mph100%29.65 "Hg5 mi
5:20 PM36 °FMostly cloudy.7 mph100%29.65 "Hg5 mi
4:50 PM36 °FPassing clouds.7 mph100%29.65 "Hg6 mi
4:20 PM36 °FBroken clouds.8 mph100%29.65 "HgN/A
3:50 PM36 °FBroken clouds.6 mph100%29.65 "HgN/A
3:20 PM36 °FPartly sunny.7 mph100%29.65 "HgN/A
2:50 PM37 °FMore clouds than sun.10 mph93%29.65 "HgN/A
2:20 PM39 °FMostly cloudy.10 mph87%29.65 "HgN/A
1:50 PM37 °FCloudy.12 mph100%29.65 "HgN/A
1:20 PM37 °FPartly sunny.13 mph93%29.65 "HgN/A
12:50 PM37 °FMore clouds than sun.10 mph100%29.65 "HgN/A
12:20 PM36 °FMostly cloudy.9 mph100%29.65 "HgN/A
11:50 AM36 °FMostly cloudy.9 mph100%29.68 "HgN/A
11:20 AM34 °FMostly cloudy.12 mph100%29.68 "HgN/A
10:50 AM34 °FMostly cloudy.12 mph100%29.68 "HgN/A
10:20 AM34 °FLow clouds.10 mph100%29.68 "HgN/A
9:50 AM34 °FLight rain. Mostly cloudy.8 mph100%29.68 "Hg4 mi
9:20 AM34 °FLight snow. Broken clouds.7 mph100%29.68 "Hg6 mi
Weather by CustomWeather, © 2015

See weather overviewHow to use our weather pages